Location: Aydie
(43.5695°N, 0.1043°W)
Time: 11:24:57
(UTC+00:00)

ATLAS 5 CENTAUR R/B - Pass Details

Date: 17 November 2025
Orbit: 373 x 1090 km, 63.3° (Epoch: 10 December)

Event Time Altitude Azimuth Distance (km) Brightness Sun altitude
Rises 16:53:38 0° 325° (NW) 2,755 5.1 -4.2°
Reaches altitude 10° 16:55:40 10° 328° (NNW) 1,954 4.3 -4.5°
Maximum altitude 17:00:06 71° 52° (NE) 744 1.8 -5.3°
Drops below altitude 10° 17:05:39 10° 137° (SE) 2,422 4.4 -6.2°
Sets 17:08:23 0° 139° (SE) 3,474 5.2 -6.7°
